When you browse on this site, cookies collect data to enhance your experience and personalize the content and advertising you see.
Visit our Privacy Policy to learn more. By continuing to use the site, you agree to this use of cookies and data.
  • In Czech Republic
  • List of Countries
  • For 7 days
  • Water Temperature
  • Weather Map
  • Weather Widgets
  • user-avatar
    Login

    Hourly Weather Saurimo

    Today, 24 September, Tuesday

    Time Temperature Precipitation Wind Pressure Humidity
    00:00 +23°C° 0 mm 0 mps 670 mmHg 57%
    01:00 +22°C° 0 mm 0 mps 669 mmHg 62%
    02:00 +22°C° 0 mm 0 mps 669 mmHg 63%
    03:00 +24°C° 0 mm 1 mps 669 mmHg 63%
    04:00 +24°C° 0 mm 1 mps 669 mmHg 64%
    05:00 +25°C° 0 mm 1 mps 670 mmHg 62%
    06:00 +25°C° 0 mm 1 mps 670 mmHg 59%
    07:00 +26°C° 0 mm 1 mps 671 mmHg 57%
    08:00 +29°C° 0 mm 1 mps 671 mmHg 51%
    09:00 +31°C° 0 mm 1 mps 672 mmHg 44%
    10:00 +33°C° 0 mm 1 mps 672 mmHg 38%
    11:00 +34°C° 0 mm 1 mps 672 mmHg 36%
    12:00 +35°C° 0 mm 1 mps 671 mmHg 33%
    13:00 +36°C° 0 mm 2 mps 670 mmHg 30%
    14:00 +34°C° 0.2 mm 2 mps 669 mmHg 39%
    15:00 +30°C° 0.2 mm 3 mps 668 mmHg 47%
    16:00 +27°C° 0.2 mm 4 mps 667 mmHg 55%
    17:00 +26°C° 0 mm 3 mps 668 mmHg 60%
    18:00 +25°C° 0 mm 1 mps 668 mmHg 64%
    19:00 +21°C° 0 mm 0 mps 668 mmHg 68%
    20:00 +23°C° 0 mm 1 mps 668 mmHg 69%
    21:00 +23°C° 0 mm 1 mps 668 mmHg 70%
    22:00 +22°C° 0 mm 1 mps 668 mmHg 71%
    23:00 +22°C° 0 mm 1 mps 668 mmHg 74%

    Tomorrow, 25 September, Wednesday

    Time Temperature Precipitation Wind Pressure Humidity
    00:00 +22°C° 0 mm 1 mps 668 mmHg 76%
    01:00 +21°C° 0 mm 1 mps 668 mmHg 79%
    02:00 +21°C° 0 mm 1 mps 668 mmHg 82%
    03:00 +21°C° 0 mm 1 mps 668 mmHg 84%
    04:00 +21°C° 0 mm 1 mps 668 mmHg 87%
    05:00 +21°C° 0 mm 2 mps 669 mmHg 82%
    06:00 +23°C° 0 mm 2 mps 670 mmHg 77%
    07:00 +24°C° 0 mm 2 mps 671 mmHg 72%
    08:00 +28°C° 0 mm 2 mps 671 mmHg 60%
    09:00 +31°C° 0 mm 1 mps 672 mmHg 48%
    10:00 +35°C° 0 mm 1 mps 672 mmHg 36%
    11:00 +36°C° 0 mm 1 mps 672 mmHg 32%
    12:00 +38°C° 0 mm 2 mps 671 mmHg 28%
    13:00 +38°C° 0 mm 2 mps 670 mmHg 24%
    14:00 +37°C° 0 mm 3 mps 670 mmHg 27%
    15:00 +35°C° 0 mm 3 mps 669 mmHg 31%
    16:00 +33°C° 0 mm 3 mps 668 mmHg 34%
    17:00 +30°C° 0 mm 2 mps 668 mmHg 39%
    18:00 +28°C° 0 mm 2 mps 668 mmHg 43%
    19:00 +27°C° 0 mm 1 mps 668 mmHg 48%
    20:00 +26°C° 0 mm 1 mps 668 mmHg 48%
    21:00 +26°C° 0 mm 1 mps 668 mmHg 48%
    22:00 +25°C° 0 mm 1 mps 668 mmHg 49%
    23:00 +24°C° 0 mm 1 mps 668 mmHg 53%

    Day after tomorrow, 26 September, Thursday

    Time Temperature Precipitation Wind Pressure Humidity
    00:00 +24°C° 0 mm 1 mps 668 mmHg 56%
    01:00 +23°C° 0 mm 1 mps 668 mmHg 60%
    02:00 +22°C° 0 mm 1 mps 668 mmHg 63%
    03:00 +22°C° 0 mm 1 mps 669 mmHg 66%
    04:00 +22°C° 0 mm 1 mps 669 mmHg 68%
    05:00 +23°C° 0 mm 1 mps 670 mmHg 65%
    06:00 +24°C° 0 mm 1 mps 671 mmHg 61%
    07:00 +25°C° 0 mm 1 mps 671 mmHg 57%
    08:00 +27°C° 0 mm 2 mps 672 mmHg 49%
    09:00 +30°C° 0 mm 2 mps 672 mmHg 40%
    10:00 +33°C° 0 mm 3 mps 672 mmHg 31%
    11:00 +34°C° 0 mm 3 mps 672 mmHg 28%
    12:00 +35°C° 0 mm 3 mps 671 mmHg 26%
    13:00 +36°C° 0 mm 3 mps 670 mmHg 24%
    14:00 +36°C° 0 mm 3 mps 670 mmHg 24%
    15:00 +35°C° 0 mm 3 mps 670 mmHg 24%
    16:00 +35°C° 0 mm 2 mps 669 mmHg 24%
    17:00 +32°C° 0 mm 2 mps 669 mmHg 31%
    18:00 +29°C° 0 mm 1 mps 669 mmHg 38%
    19:00 +27°C° 0 mm 1 mps 669 mmHg 45%
    20:00 +27°C° 0 mm 1 mps 669 mmHg 47%
    21:00 +24°C° 0 mm 0 mps 670 mmHg 50%
    22:00 +24°C° 0 mm 0 mps 670 mmHg 53%
    23:00 +25°C° 0 mm 1 mps 670 mmHg 56%

    27 September, Friday

    Time Temperature Precipitation Wind Pressure Humidity
    00:00 +25°C° 0 mm 1 mps 670 mmHg 59%
    01:00 +24°C° 0 mm 1 mps 669 mmHg 61%
    02:00 +24°C° 0.2 mm 1 mps 670 mmHg 65%
    03:00 +24°C° 0.2 mm 1 mps 670 mmHg 68%
    04:00 +23°C° 0.2 mm 1 mps 670 mmHg 71%
    05:00 +24°C° 0.2 mm 1 mps 671 mmHg 70%
    06:00 +24°C° 0.2 mm 1 mps 671 mmHg 69%
    07:00 +24°C° 0.2 mm 1 mps 672 mmHg 68%
    08:00 +27°C° 0 mm 2 mps 672 mmHg 55%
    09:00 +29°C° 0 mm 2 mps 672 mmHg 42%
    10:00 +33°C° 0 mm 3 mps 673 mmHg 29%
    11:00 +34°C° 0 mm 3 mps 672 mmHg 27%
    12:00 +35°C° 0 mm 3 mps 672 mmHg 25%
    13:00 +36°C° 0 mm 3 mps 671 mmHg 22%
    14:00 +35°C° 0 mm 2 mps 671 mmHg 24%
    15:00 +34°C° 0 mm 2 mps 670 mmHg 26%
    16:00 +33°C° 0 mm 1 mps 669 mmHg 28%
    17:00 +31°C° 0 mm 1 mps 669 mmHg 34%
    18:00 +29°C° 0 mm 1 mps 669 mmHg 40%
    19:00 +27°C° 0 mm 2 mps 669 mmHg 45%
    20:00 +27°C° 0 mm 2 mps 669 mmHg 49%
    21:00 +26°C° 0 mm 2 mps 670 mmHg 53%
    22:00 +26°C° 0 mm 2 mps 670 mmHg 56%
    23:00 +24°C° 0 mm 2 mps 670 mmHg 61%

    28 September, Saturday

    Time Temperature Precipitation Wind Pressure Humidity
    00:00 +23°C° 0 mm 2 mps 669 mmHg 66%
    01:00 +22°C° 0 mm 1 mps 669 mmHg 71%
    02:00 +22°C° 0 mm 1 mps 669 mmHg 73%
    03:00 +22°C° 0 mm 1 mps 669 mmHg 75%
    04:00 +22°C° 0 mm 1 mps 669 mmHg 76%
    05:00 +23°C° 0 mm 1 mps 670 mmHg 73%
    06:00 +24°C° 0 mm 1 mps 671 mmHg 69%
    07:00 +25°C° 0 mm 2 mps 671 mmHg 65%
    08:00 +27°C° 0 mm 1 mps 672 mmHg 56%
    09:00 +30°C° 0 mm 1 mps 672 mmHg 47%
    10:00 +33°C° 0 mm 1 mps 673 mmHg 38%
    11:00 +33°C° 0 mm 1 mps 672 mmHg 37%
    12:00 +34°C° 0 mm 2 mps 671 mmHg 36%
    13:00 +32°C° 0 mm 2 mps 670 mmHg 36%
    14:00 +31°C° 0 mm 3 mps 669 mmHg 40%
    15:00 +29°C° 0 mm 3 mps 669 mmHg 45%
    16:00 +28°C° 0 mm 3 mps 668 mmHg 50%
    17:00 +27°C° 0 mm 2 mps 668 mmHg 52%
    18:00 +26°C° 0 mm 2 mps 668 mmHg 55%
    19:00 +25°C° 0 mm 2 mps 668 mmHg 57%
    20:00 +24°C° 0 mm 2 mps 669 mmHg 60%
    21:00 +24°C° 0 mm 2 mps 669 mmHg 62%
    22:00 +23°C° 0 mm 1 mps 669 mmHg 65%
    23:00 +23°C° 0 mm 1 mps 669 mmHg 66%

    29 September, Sunday

    Time Temperature Precipitation Wind Pressure Humidity
    00:00 +23°C° 0 mm 1 mps 669 mmHg 66%
    01:00 +22°C° 0 mm 1 mps 668 mmHg 67%
    02:00 +22°C° 0 mm 1 mps 669 mmHg 69%
    03:00 +22°C° 0 mm 1 mps 669 mmHg 71%
    04:00 +21°C° 0 mm 1 mps 669 mmHg 72%
    05:00 +22°C° 0 mm 1 mps 669 mmHg 70%
    06:00 +23°C° 0 mm 1 mps 670 mmHg 69%
    07:00 +24°C° 0 mm 1 mps 671 mmHg 67%
    08:00 +27°C° 0 mm 2 mps 671 mmHg 58%
    09:00 +29°C° 0 mm 2 mps 671 mmHg 49%
    10:00 +32°C° 0 mm 2 mps 672 mmHg 41%
    11:00 +32°C° 0 mm 2 mps 671 mmHg 38%
    12:00 +34°C° 0 mm 2 mps 670 mmHg 36%
    13:00 +34°C° 0 mm 1 mps 670 mmHg 33%
    14:00 +34°C° 0 mm 2 mps 669 mmHg 34%
    15:00 +34°C° 0 mm 2 mps 669 mmHg 35%
    16:00 +32°C° 0 mm 2 mps 668 mmHg 35%
    17:00 +30°C° 0 mm 2 mps 668 mmHg 42%
    18:00 +28°C° 0 mm 2 mps 668 mmHg 49%
    19:00 +26°C° 0 mm 2 mps 668 mmHg 55%
    20:00 +25°C° 0.3 mm 2 mps 669 mmHg 63%
    21:00 +24°C° 0.3 mm 1 mps 669 mmHg 70%
    22:00 +22°C° 0.3 mm 1 mps 669 mmHg 78%
    23:00 +22°C° 0.1 mm 1 mps 669 mmHg 80%
    Show more